Overview Statistics Trail Chart Weather Telemetry Raw packets
 

This is the latest recevied weather packets stored in our database for station/object K7DC. If no packets are shown the sender has not sent any weather packets the latest 10 day(s).

<< 108 109 110 111 112 113 114 >>
Time Temp. Humidity Pressure Rain* Wind** Luminosity Snow
1787818809 27.22° C 51% 1014.4 hPa 0 mm - 0 W/m² -
1787818504 27.22° C 52% 1014.6 hPa 0 mm - 0 W/m² -
1787818201 27.78° C 51% 1014.6 hPa 0 mm - 0 W/m² -
1787817899 27.78° C 50% 1014.7 hPa 0 mm - 0 W/m² -
1787817596 27.78° C 50% 1015 hPa 0 mm - 0 W/m² -
1787817291 27.78° C 50% 1015 hPa 0 mm - 0 W/m² -
1787816990 28.33° C 49% 1015 hPa 0 mm - 0 W/m² -
1787816685 28.33° C 49% 1015.1 hPa 0 mm - 0 W/m² -
1787816381 28.33° C 49% 1015.1 hPa 0 mm - 0 W/m² -
1787816081 28.33° C 49% 1015.1 hPa 0 mm - 0 W/m² -
1787815776 28.33° C 48% 1015.4 hPa 0 mm - 0 W/m² -
1787815473 28.33° C 48% 1015.3 hPa 0 mm - 0 W/m² -
1787815168 28.89° C 46% 1015.4 hPa 0 mm - 0 W/m² -
1787814864 28.89° C 47% 1015.6 hPa 0 mm - 0 W/m² -
1787814563 28.33° C 47% 1015.3 hPa 0 mm - 0 W/m² -
1787814258 28.89° C 48% 1015.3 hPa 0 mm - 0 W/m² -
1787813958 28.89° C 47% 1015.3 hPa 0 mm - 0 W/m² -
1787813654 28.89° C 47% 1015.1 hPa 0 mm - 0 W/m² -
1787813349 28.89° C 47% 1015.2 hPa 0 mm - 0 W/m² -
1787813045 28.89° C 46% 1015.2 hPa 0 mm - 0 W/m² -
1787812745 29.44° C 46% 1015.3 hPa 0 mm - 0 W/m² -
1787812440 29.44° C 45% 1015.1 hPa 0 mm - 0 W/m² -
1787812135 29.44° C 43% 1015.2 hPa 0 mm - 0 W/m² -
1787811830 30° C 43% 1015.2 hPa 0 mm - 0 W/m² -
1787811530 30° C 42% 1015.1 hPa 0 mm - 0 W/m² -

* Rain latest hour (hover to see other rain measurements)
** Current wind speed in m/s (hover to see current wind gust speed)